Find Lemur-2 Leia-Philip

NORAD ID: 63246 Int'l Des: 2025-052 Owner: SPIRE Country: US Constellation: spire operational
LEOCIRCULARRETROGRADESSO

当前视图

正在加载3D地球...

关于 Lemur-2 Leia-Philip

正在加载描述...

即将过境

Passes for default location (London). Set your location on the main map for personalized predictions.

高度历史

Loading altitude history...

两行轨道根数

1 63246U 25052AN 26151.22883293 .00002106 00000-0 18677-3 0 9998
2 63246 97.6848 43.4642 0002609 294.8197 65.2754 14.97258359 66133
Epoch: May 31, 2026 • Age: 15 hours

当前状态

高度 587.3 km
速度 7.57 km/s
星下点 59.55°N, 41.02°E
发射日期 Mar 15, 2025
运行时间 1.2 years
类型 other

技术详情

分类 Payload
质量 10.00 kg
干质量 10.00 kg
总质量 10.00 kg
长度 0.30 m
直径 0.20 m
跨度 0.30 m
形状 Box
制造商 SPIREG
平台类型 Cubesat 6U
阶段状态 In Orbit
所有者/国家 SPIRE/US

Most Searched